Weather in Bad Reichenhall

Germany     47°43′15″N   12°52′26″E
temp.,
°C
wind,
m/s
gust,
m/s
humid.,
%
clouds,
%
prec.,
mm/h
press.,
hPa
HPBL,
m
6 march, sat
sat601:00−6nne119897 2.3 103235
04:00−6sse11956 0.0 103221
07:00−6sse11933 0.0 103321
10:000ene22760 0.0 1032509
13:00+3ne22640 0.0 1030799
16:00+2ne22690 0.0 1029539
19:00−3s11890 0.0 103021
22:00−3s22840 0.0 103021
7 march, sun
sun701:00−3ssw12824 0.0 103022
04:00−4ssw12830 0.0 102822
07:00−3ssw22790 0.0 102825
10:00+5nw11590 0.0 1025358
13:00+7n126029 0.0 1022701
16:00+6n126861 0.0 1020629
19:00+1ssw118947 0.0 102122
22:00+1wsw129499 0.1 102127
8 march, mon
mon801:00+1wsw119999 1.3 102148
04:00+1n0199100 0.2 102142
07:000nnw1199100 1.4 102182
10:00+1nnw1293100 1.1 1021236
13:00+2nnw129099 1.3 1020360
16:00+3nnw118394 0.2 1018496
19:00−1s119181 0.2 102121
22:00−2s119277 0.0 102121
9 march, tue
tue901:00−2s119087 0.0 102121
04:00−2ssw1188100 0.0 102021
07:00−2ssw1187100 0.0 102022
10:00+2n1178100 0.0 1019440
13:00+4n1278100 0.3 1019675
16:00+3nne1182100 0.6 1019469
19:00−1sw1192100 0.8 102121
22:00−1sw229098 0.0 102426
10 march, wed
wed1001:00−2sw229271 0.0 102432
04:00−2ssw23840 0.0 102539
07:00−2ssw23800 0.0 102545
10:00+5wsw1263100 0.0 1023297
13:00+8wsw1251100 0.0 1020864
16:00+7wsw1265100 0.0 1019392
19:00+3ssw2374100 0.0 101941
22:00+3ssw3368100 0.0 102055